Weather History for KLUM - March, 2013

Change the Weather History Date:

Saturday, March 30, 2013

  Actual Average (KEAU) Record (KEAU)
Temperature  
Mean Temperature 37 °F 38 °F  
Max Temperature 42 °F 48 °F 78 °F (1967)
Min Temperature 32 °F 27 °F -6 °F (1991)
Degree Days  
Heating Degree Days 28 27  
Month to date heating degree days 1017  
Since 1 July heating degree days 7038  
Cooling Degree Days 0 0  
Month to date cooling degree days 0  
Year to date cooling degree days 0  
Moisture  
Dew Point 35 °F    
Average Humidity 88    
Maximum Humidity 100    
Minimum Humidity 65    
Precipitation  
Precipitation 0.54 in 0.07 in 1.38 in (1982)
Month to date precipitation 1.65  
Year to date precipitation 3.35  
Snow  
Snow 0.00 in 0.20 in 10.00 in (1934)
Month to date snowfall 8.4  
Since 1 July snowfall 44.7  
Snow Depth -    
Sea Level Pressure  
Sea Level Pressure 29.91 in    
Wind  
Wind Speed 7 mph (South)    
Max Wind Speed 20 mph    
Max Gust Speed 24 mph    
Visibility 5 miles    
Events Fog , Rain    
T = Trace of Precipitation, MM = Missing Value Source: NWS Daily Summary

Daily Weather History Graph

Daily Weather History Graph

Search for Another Location

Airport or City:

Trip Planner

Search our weather history database for the weather conditions in past years. The results will help you decide how hot, cold, wet, or windy it might be!

Date:

Astronomy

Mar. 30, 2013 Rise Set
Actual Time 6:51 AM CDT 7:32 PM CDT
Civil Twilight 6:21 AM CDT 8:02 PM CDT
Nautical Twilight 5:46 AM CDT 8:37 PM CDT
Astronomical Twilight 5:10 AM CDT 9:14 PM CDT
Moon 11:50 PM CDT (3/30) 8:37 AM CDT (3/30)
Length of Visible Light 13h 40m
Length of Day
12h 41m
Waning Gibbous, 86% of the Moon is Illuminated
Mar 30
Waning Gibbous
Apr 2
Last Quarter
Apr 10
New
Apr 18
First Quarter
Apr 25
Full

Hourly Weather History & Observations

Time (CDT) Temp. Windchill Dew Point Humidity Pressure Visibility Wind Dir Wind Speed Gust Speed Precip Events Conditions
12:15 AM 35.6 °F 30.7 °F 28.4 °F 75% 30.11 in 10.0 mi East 5.8 mph - N/A   Overcast
12:55 AM 37.4 °F 33.8 °F 28.4 °F 70% 30.10 in 10.0 mi East 4.6 mph - N/A   Overcast
1:35 AM 37.4 °F 33.8 °F 28.4 °F 70% 30.09 in 10.0 mi East 4.6 mph - N/A   Light Drizzle
1:55 AM 37.4 °F 33.8 °F 28.4 °F 70% 30.09 in 10.0 mi East 4.6 mph - N/A Rain Light Rain
2:15 AM 37.4 °F 34.9 °F 28.4 °F 70% 30.08 in 10.0 mi East 3.5 mph - N/A   Light Drizzle
2:55 AM 35.6 °F 32.8 °F 30.2 °F 81% 30.05 in 10.0 mi East 3.5 mph - N/A   Overcast
3:15 AM 37.4 °F 32.1 °F 30.2 °F 75% 30.04 in 10.0 mi ESE 6.9 mph - N/A   Overcast
3:35 AM 37.4 °F 32.1 °F 30.2 °F 75% 30.03 in 10.0 mi ESE 6.9 mph - N/A   Overcast
3:55 AM 37.4 °F 32.8 °F 30.2 °F 75% 30.03 in 10.0 mi SE 5.8 mph - N/A   Overcast
4:15 AM 39.2 °F 34.2 °F 30.2 °F 70% 30.01 in 10.0 mi SE 6.9 mph - N/A   Overcast
4:35 AM 41.0 °F 34.7 °F 30.2 °F 65% 30.00 in 10.0 mi SE 10.4 mph - N/A   Overcast
4:55 AM 41.0 °F 34.3 °F 30.2 °F 65% 29.98 in 10.0 mi SSE 11.5 mph - N/A   Overcast
5:15 AM 41.0 °F 34.3 °F 30.2 °F 65% 29.98 in 10.0 mi SSE 11.5 mph - N/A   Mostly Cloudy
5:35 AM 41.0 °F 34.3 °F 30.2 °F 65% 29.98 in 10.0 mi SSE 11.5 mph - N/A   Mostly Cloudy
5:55 AM 41.0 °F 37.1 °F 30.2 °F 65% 29.99 in 10.0 mi South 5.8 mph - N/A   Drizzle
6:15 AM 41.0 °F 38.0 °F 32.0 °F 70% 29.98 in 10.0 mi South 4.6 mph - N/A Rain Rain
6:35 AM 39.2 °F - 32.0 °F 75% 29.98 in 4.0 mi Calm Calm - 0.04 in Rain Rain
6:55 AM 39.2 °F 34.2 °F 33.8 °F 81% 29.97 in 3.0 mi SSE 6.9 mph - 0.10 in Rain Rain
7:15 AM 37.4 °F 28.9 °F 33.8 °F 87% 29.95 in 3.0 mi SSE 13.8 mph - 0.06 in Rain Rain
7:35 AM 37.4 °F 28.5 °F 33.8 °F 87% 29.93 in 3.0 mi SSE 15.0 mph - 0.11 in Rain Rain
7:55 AM 37.4 °F 28.5 °F 35.6 °F 93% 29.92 in 5.0 mi SSE 15.0 mph - 0.12 in Rain Rain
8:15 AM 37.4 °F 31.4 °F 35.6 °F 93% 29.93 in 4.0 mi South 8.1 mph - 0.01 in Rain Light Rain
8:35 AM 37.4 °F 31.4 °F 35.6 °F 93% 29.93 in 3.0 mi South 8.1 mph - 0.04 in Rain Rain
8:55 AM 37.4 °F 32.1 °F 35.6 °F 93% 29.92 in 4.0 mi South 6.9 mph - 0.05 in Rain Rain
9:15 AM 37.4 °F 29.8 °F 35.6 °F 93% 29.91 in 5.0 mi South 11.5 mph - 0.02 in Rain Rain
9:35 AM 37.4 °F 28.5 °F 37.4 °F 100% 29.90 in 4.0 mi South 15.0 mph 20.7 mph 0.06 in Rain Rain
9:55 AM 37.4 °F 27.8 °F 37.4 °F 100% 29.89 in 5.0 mi South 17.3 mph 20.7 mph 0.06 in Rain Rain
10:15 AM 37.4 °F 27.2 °F 37.4 °F 100% 29.89 in 2.5 mi South 19.6 mph 24.2 mph 0.04 in Rain Rain
10:35 AM 37.4 °F 27.8 °F 35.6 °F 93% 29.88 in 3.0 mi South 17.3 mph 20.7 mph 0.09 in Rain Light Rain
10:55 AM 37.4 °F 28.9 °F 37.4 °F 100% 29.88 in 2.5 mi South 13.8 mph - 0.12 in Rain Rain
11:15 AM 37.4 °F 28.9 °F 37.4 °F 100% 29.88 in 2.0 mi South 13.8 mph - 0.01 in Rain Light Rain
11:35 AM 37.4 °F 30.8 °F 37.4 °F 100% 29.88 in 2.0 mi SSW 9.2 mph - 0.04 in Rain Light Rain
12:15 PM 37.4 °F 31.4 °F 37.4 °F 100% 29.88 in 2.5 mi SSW 8.1 mph - 0.05 in Rain Light Rain
12:35 PM 37.4 °F 32.1 °F 37.4 °F 100% 29.87 in 1.5 mi SSW 6.9 mph - 0.05 in   Light Drizzle
12:55 PM 37.4 °F 34.9 °F 37.4 °F 100% 29.87 in 1.0 mi SSW 3.5 mph - 0.05 in   Light Drizzle
1:15 PM 37.4 °F 33.8 °F 37.4 °F 100% 29.86 in 0.8 mi SW 4.6 mph - N/A   Overcast
1:35 PM 37.4 °F 32.8 °F 37.4 °F 100% 29.86 in 1.2 mi SW 5.8 mph - N/A   Overcast
1:55 PM 39.2 °F 37.0 °F 39.2 °F 100% 29.86 in 1.5 mi WSW 3.5 mph - N/A   Overcast
2:15 PM 39.2 °F 33.6 °F 39.2 °F 100% 29.86 in 3.0 mi WSW 8.1 mph - N/A   Overcast
2:35 PM 41.0 °F 36.4 °F 41.0 °F 100% 29.85 in 3.0 mi WSW 6.9 mph - N/A   Overcast
2:55 PM 41.0 °F 37.1 °F 41.0 °F 100% 29.86 in 3.0 mi West 5.8 mph - N/A   Overcast
3:15 PM 41.0 °F 37.1 °F 41.0 °F 100% 29.85 in 4.0 mi West 5.8 mph - N/A   Overcast
3:35 PM 41.0 °F 36.4 °F 41.0 °F 100% 29.85 in 4.0 mi West 6.9 mph - N/A   Mostly Cloudy
3:55 PM 42.8 °F 37.5 °F 42.8 °F 100% 29.84 in 4.0 mi West 9.2 mph - N/A   Mostly Cloudy
4:15 PM 42.8 °F 38.6 °F 41.0 °F 93% 29.84 in 5.0 mi West 6.9 mph - N/A   Overcast
4:35 PM 41.0 °F 35.8 °F 37.4 °F 87% 29.85 in 5.0 mi West 8.1 mph - N/A   Overcast
4:55 PM 41.0 °F 38.0 °F 37.4 °F 87% 29.84 in 5.0 mi West 4.6 mph - N/A   Overcast
5:35 PM 42.8 °F 39.3 °F 37.4 °F 81% 29.84 in 5.0 mi West 5.8 mph - N/A   Haze
5:55 PM 41.0 °F 35.8 °F 37.4 °F 87% 29.85 in 7.0 mi West 8.1 mph - N/A   Overcast
6:15 PM 42.8 °F 39.3 °F 35.6 °F 76% 29.85 in 7.0 mi NW 5.8 mph - N/A   Scattered Clouds
6:35 PM 42.8 °F - 35.6 °F 76% 29.84 in 7.0 mi Calm Calm - N/A   Clear
6:55 PM 42.8 °F - 35.6 °F 76% 29.84 in 7.0 mi Calm Calm - N/A   Clear
7:15 PM 39.2 °F - 35.6 °F 87% 29.84 in 7.0 mi Calm Calm - N/A   Clear
7:35 PM 37.4 °F - 35.6 °F 93% 29.83 in 7.0 mi Calm Calm - N/A   Clear
8:15 PM 35.6 °F 32.8 °F 33.8 °F 93% 29.83 in 5.0 mi SSE 3.5 mph - N/A   Clear
8:35 PM 35.6 °F - 33.8 °F 93% 29.83 in 4.0 mi Calm Calm - N/A   Clear
8:55 PM 35.6 °F - 35.6 °F 100% 29.83 in 4.0 mi Calm Calm - N/A   Clear
9:15 PM 33.8 °F - 33.8 °F 100% 29.83 in 3.0 mi Calm Calm - N/A   Clear
9:35 PM 33.8 °F - 32.0 °F 93% 29.84 in 3.0 mi Calm Calm - N/A   Clear
9:55 PM 35.6 °F - 35.6 °F 100% 29.84 in 3.0 mi Calm Calm - N/A   Clear
10:15 PM 33.8 °F - 33.8 °F 100% 29.84 in 2.0 mi Calm Calm - N/A   Clear
10:55 PM 33.8 °F 30.8 °F 33.8 °F 100% 29.83 in 0.8 mi WSW 3.5 mph - N/A   Mist
11:15 PM 32.0 °F - 32.0 °F 100% 29.83 in 0.2 mi Calm Calm - N/A Fog Light Freezing Fog
11:35 PM 32.0 °F - 32.0 °F 100% 29.82 in 0.2 mi Calm Calm - N/A Fog Light Freezing Fog
11:55 PM 32.0 °F 28.7 °F 32.0 °F 100% 29.82 in 1.5 mi WSW 3.5 mph - N/A   Mist